Regional Weather Roundup
Issued by NWS Grand Forks, ND

Home | Current Version | Previous Version | Graphics & Text | Print | Product List | Glossary On
Versions: 1 2 3 4 5 6 7 8 9 10 11 12 13 14 15 16 17 18 19 20 21 22 23 24 25 26 27 28 29 30 31 32 33 34 35 36 37 38 39 40 41 42 43 44 45 46 47 48 49 50
000
ASUS43 KFGF 302031
RWRFGF
PRAIRIE TO PINES  WEATHER ROUNDUP
NATIONAL WEATHER SERVICE EASTERN NORTH DAKOTA/GRAND FORKS ND
300 PM CDT TUE AUG 30 2016

 **SATELLITE DATA USED TO AUGMENT SKY COVER AT AUTOMATED STATIONS**
 *****  WEATHER ACROSS EASTERN NORTH DAKOTA  *****

CITY           SKY/WX    TMP DP  RH WIND       PRES   REMARKS
GRAND FORKS    MOSUNNY   79  51  37 NW9       30.21F
GRAND FRKS AFB SUNNY     78  52  39 N8        30.22F
GRAND FRKS NWS   N/A     79 N/A N/A NW7         N/A
DEVILS LAKE    SUNNY     76  50  40 W6        30.25F
FARGO          SUNNY     80  52  37 N7        30.21F
WAHPETON ARPT  CLEAR     79  45  29 N3        30.21F
$$

 ***** WEATHER ACROSS CENTRAL AND WESTERN NORTH DAKOTA  *****

CITY           SKY/WX    TMP DP  RH WIND       PRES   REMARKS
BISMARCK       MOSUNNY   83  47  28 S12       30.22F
MINOT          SUNNY     83  44  25 SE9       30.21F
JAMESTOWN      SUNNY     80  51  36 VRB3      30.23F
MINOT AFB      SUNNY     83  43  24 SE8       30.19F
GARRISON         N/A     84  48  28 S9        30.21F
WILLISTON      PTSUNNY   84  50  30 SE10      30.15S
DICKINSON      CLOUDY    81  53  37 SE21G30   30.16F
HETTINGER      MOSUNNY   81  60  48 E9        30.22F
$$

 *****  OTHER AIRPORT OBSERVATIONS IN OUR AREA  *****

CITY           SKY/WX    TMP DP  RH WIND       PRES   REMARKS
WALHALLA       FAIR      75  72  88 N7        30.23F
GRAFTON AIRPOR FAIR      79  52  38 N9        30.23F
VALLEY CITY AR FAIR      77  54  44 NE3       30.25F
CANDO          FAIR      81  52  36 NW5       30.26F
CAVALIER APRT  FAIR      75  50  41 W9        30.22F
GWINNER        FAIR      81  54  39 NE6       30.23F
SHEYENNE NWR     N/A     80  53  38 NE3       29.95
ROLLA            N/A     73  48  40 SW5       30.26F
 ***** THE ABOVE OBSERVATIONS ARE NON NWS ARE NOT QUALITY
       CONTROLLED AND MAY MIS-REPORT RAIN FOR SNOW...
$$

  *****  WEATHER ACROSS NORTHERN MINNESOTA  *****

CITY           SKY/WX    TMP DP  RH WIND       PRES   REMARKS
FLAG ISLAND    SUNNY     70  46  43 NW3       30.18F HAZE
WARROAD        SUNNY     73  55  53 W7        30.20F
ROSEAU         SUNNY     75  52  43 NW9       30.21S
HALLOCK        SUNNY     75  43  31 NW9       30.21F
THF RVR FALLS  SUNNY     74  50  42 W12       30.23F
BAUDETTE       SUNNY     73  50  44 NW13      30.20F
WASKISH        SUNNY     73  55  53 W10       30.20F
CROOKSTON      SUNNY     75  52  43 NW6       30.22F
STEPHEN NDAWN    N/A     75  50  41 NW10        N/A
GREENBUSH NDAW   N/A     77  46  33 NW9         N/A
$$
  *****  WEATHER ACROSS CENTRAL AND WEST MINNESOTA  *****

CITY           SKY/WX    TMP DP  RH WIND       PRES   REMARKS
FOSSTON        SUNNY     75  52  43 NW5       30.23F
BEMIDJI        SUNNY     73  51  44 NW8       30.21F
PARK RAPIDS    NOT AVBL
ELBOW LAKE     FAIR      76  53  43 N5        30.22F
WADENA         SUNNY     75  54  46 NW8       30.21F
DETROIT LAKES  SUNNY     73  52  46 N6        30.24S
MOORHEAD       SUNNY     79  48  34 N7        30.22F
FERGUS FALLS   SUNNY     77  54  44 N3        30.22F
MORRIS MN      SUNNY     82  52  34 N6        30.20F
STAPLES        SUNNY     77  48  36 N7        30.21S
$$
  *****  WEATHER ELSEWHERE ACROSS MINNESOTA  *****

CITY           SKY/WX    TMP DP  RH WIND       PRES   REMARKS
DULUTH         SUNNY     74  50  42 NW9       30.17S
INTRNTL FALLS  SUNNY     73  47  39 NW12      30.18F
ELY            SUNNY     72  45  37 NW7       30.16F
CLOQUET        SUNNY     73  45  35 W5        30.17F
WHEATON        SUNNY     82  55  39 NE5       30.22F
BRAINERD       SUNNY     75  49  39 N8        30.20F
HIBBING        SUNNY     71  47  42 NW12      30.19F
ALEXANDRIA     SUNNY     77  50  38 N6        30.24S
SAINT CLOUD    SUNNY     77  51  40 NW6       30.19F
MINNEAPOLIS    CLOUDY    79  56  45 VRB3      30.17F
$$

  *****  WEATHER ACROSS SOUTH DAKOTA  *****

CITY           SKY/WX    TMP DP  RH WIND       PRES   REMARKS
SIOUX FALLS    CLOUDY    84  71  65 E9        30.19F
BROOKINGS      SUNNY     78  62  57 E8        30.21F
WATERTOWN      SUNNY     81  57  43 NE9       30.22F
HURON          PTSUNNY   85  68  56 E13       30.17F
SISSETON         N/A     81  53  37 CALM      30.21F
ABERDEEN       SUNNY     84  56  38 NE14      30.21F
MITCHELL       MOSUNNY   87  67  51 E6        30.17F HX  90
PIERRE         MOSUNNY   87  67  51 SE12      30.15F HX  90
MOBRIDGE       PTSUNNY   87  53  31 SE13G21   30.17F
RAPID CITY     SUNNY     83  63  50 S12       30.22F
$$

  *****  SOME WEATHER IN NEARBY STATES *****

CITY           SKY/WX    TMP DP  RH WIND       PRES   REMARKS
GLASGOW MT     SUNNY     81  54  39 E9        30.08F
GREAT FALLS MT MOSUNNY   84  46  26 VRB5      30.09F
CHEYENNE WY    CLOUDY    72  52  49 SE10      30.37S
SCOTTSBLUFF NE SUNNY     83  56  39 SE8       30.25F
OMAHA NE       CLOUDY    80  68  66 CALM      30.16F
DES MOINES IA  CLOUDY    82  70  66 N6        30.13F
DAVENPORT IA   MOSUNNY   82  71  69 W7        30.10F
CHICAGO IL     PTSUNNY   83  68  60 W10       30.07F
EAU CLAIRE WI  CLOUDY    78  63  59 NW8       30.12F
LA CROSSE WI   PTSUNNY   82  65  56 NW10      30.10F
$$

  *****  SOME NATIONAL WEATHER *****

CITY           SKY/WX    TMP DP  RH WIND       PRES   REMARKS
LA GUARDIA NY  MOSUNNY   86  61  42 S13G20    30.06F
RALEIGH NC     MOSUNNY   92  65  40 CALM      30.03F HX  94
ATLANTA GA     MOSUNNY   87  66  49 NE13      30.03F
NEW ORLEANS LA MOSUNNY   94  73  50 E12       29.91F HX 103
OKLAHOMA CITY  PTSUNNY   93  65  39 VRB3      30.07F HX  95
ALBUQUERQUE NM PTSUNNY   79  50  36 SE10      30.27F
SALT LAKE CITY MOSUNNY   96  31  10 SW9       30.08F HX  90
LOS ANGELES CA MOSUNNY   79  63  57 W12       29.84F
BOISE ID       CLOUDY    84  38  19 NE9       29.93F
SEATTLE WA     PTSUNNY   66  51  58 SW10      30.02F
$$

*** WEATHER ACROSS MANITOBA...SASKATCHEWAN AND ONTARIO ***
                ***ONTARIO***

CITY           SKY/WX    TMP DP  RH WIND       PRES   REMARKS
GERALDTON      CLOUDY    66  50  55 W8        30.06R
THUNDER BAY    MOSUNNY   75  48  38 NW10G17   30.07F
SIOUX LOOKOUT  MOSUNNY   68  52  56 NW14G23   30.15
TORONTO        PTSUNNY   86  63  45 SW10G18   30.04F
BIG TROUT LK   LGT RAIN  55  52  88 NW12G20   30.03R
PICKLE LAKE    PTSUNNY   64  52  63 NW9G21    30.08R
DRYDEN         SUNNY     70  46  43 W13G21    30.16F
KENORA         MOSUNNY   70  43  37 NW8       30.20F
$$
                *** MANITOBA***

CITY           SKY/WX    TMP DP  RH WIND       PRES   REMARKS
BRANDON        PTSUNNY   72  52  49 W5        30.24S
DAUPHIN        SUNNY     72  46  40 N5        30.23F
ISLAND LAKE    CLOUDY    59  54  82 NW9       30.16R
PILOT MOUND      N/A     73  46  38 W5          N/A
THE PAS        PTSUNNY   63  52  67 NW6       30.25S
THOMPSON       CLOUDY    57  50  77 N5        30.24R
WINNIPEG       MOSUNNY   73  43  33 W10       30.21F
LYNN LAKE      CLOUDY    57  48  72 MISG      30.28S
CHURCHILL      PTSUNNY   52  46  82 N22       30.21R
GILLAM         CLOUDY    54  48  82 N15G21    30.18R
$$
                ***SASKATCHEWAN***

CITY           SKY/WX    TMP DP  RH WIND       PRES   REMARKS
ESTEVAN        PTSUNNY   82  46  28 SE12      30.18F
KINDERSLEY     MOSUNNY   75  50  41 E15G23    30.15F
LLOYDMINSTER   MOSUNNY   68  48  49 E17G24    30.21F
PRINCE ALBERT  PTSUNNY   66  43  42 VRB3      30.27F
REGINA         MOSUNNY   82  48  30 E15G22    30.17F
YORKTON        SUNNY     70  46  43 CALM      30.24F
N. BATTLEFORD  SUNNY     70  46  43 E14G22    30.24F
LA RONGE       MOSUNNY   61  48  63 NE6       30.30S
SASKATOON      MOSUNNY   72  46  40 E13       30.24F
SWIFT CURRENT  MOSUNNY   75  54  46 E18G24    30.13F
$$
NOTE: THESE ARE AUTOMATED STATIONS WITH LIMITED QUALITY CONTROL
      "FAIR" INDICATES FEW OR NO CLOUDS BELOW 12,000 FEET WITH NO
      SIGNIFICANT WEATHER AND/OR OBSTRUCTIONS TO VISIBILITY.
      SKY/WX - SKY CONDITION AND SIGNIFICANT WEATHER.
      TMP - AIR TEMPERATURE.    DP   - DEWPOINT TEMPERATURE.
      RH  - RELATIVE HUMIDITY.  PRES - PRESSURE.
      HX  - HEAT INDEX.         WCI  - WIND CHILL INDEX.
$




USA.gov is the U.S. government's official web portal to all federal, state and local government web resources and services.